Houston, TX

5:54 AM CST on December 06, 2016 (GMT -0600)
Houston / Dunn Helistop

Weather History for KMCJ - August, 2013

Change the Weather History Date:

Wednesday, August 7, 2013

  Actual Average (KHOU) Record (KHOU)
Temperature  
Mean Temperature 88 °F 85 °F  
Max Temperature 100 °F 95 °F 104 °F (2003)
Min Temperature 77 °F 75 °F 63 °F (1891)
Cooling Degree Days 24 20  
Month to date cooling degree days 140  
Year to date cooling degree days 1913  
Since 1 June cooling degree days 1261  
Growing Degree Days 38 (Base 50)    
Moisture  
Dew Point 72 °F    
Average Humidity 66    
Maximum Humidity 94    
Minimum Humidity 29    
Precipitation  
Precipitation 0.00 in 0.11 in 2.61 in (1914)
Month to date precipitation 0.73  
Year to date precipitation 28.84  
Sea Level Pressure  
Sea Level Pressure 29.89 in    
Wind  
Wind Speed 7 mph (SW)    
Max Wind Speed 14 mph    
Max Gust Speed 24 mph    
Visibility 4 miles    
Events      
T = Trace of Precipitation, MM = Missing Value Source: NWS Daily Summary

Daily Weather History Graph

Daily Weather History Graph

Search for Another Location

Airport or City:

Trip Planner

Search our weather history database for the weather conditions in past years. The results will help you decide how hot, cold, wet, or windy it might be!

Date:

Astronomy

Aug. 07, 2013 Rise Set
Actual Time 6:44 AM CDT 8:09 PM CDT
Civil Twilight 6:19 AM CDT 8:34 PM CDT
Nautical Twilight 5:48 AM CDT 9:05 PM CDT
Astronomical Twilight 5:17 AM CDT 9:36 PM CDT
Moon 7:26 AM CDT (8/7) 8:27 PM CDT (8/7)
Length of Visible Light 14h 15m
Length of Day
13h 24m
New Moon, 1% of the Moon is Illuminated
Aug 7
New Moon
Aug 14
First Quarter
Aug 20
Full
Aug 28
Last Quarter
Sep 5
New

Hourly Weather History & Observations

Time (CDT) Temp. Heat Index Dew Point Humidity Pressure Visibility Wind Dir Wind Speed Gust Speed Precip Events Conditions
12:15 AM 80.6 °F 87.1 °F 77.0 °F 89% 29.92 in 5.0 mi South 6.9 mph - N/A   Clear
12:35 AM 80.6 °F 87.1 °F 77.0 °F 89% 29.92 in 5.0 mi South 9.2 mph - N/A   Clear
12:55 AM 80.6 °F 87.1 °F 77.0 °F 89% 29.92 in 5.0 mi South 6.9 mph - N/A   Clear
1:15 AM 80.6 °F 86.2 °F 75.2 °F 84% 29.92 in 5.0 mi South 8.1 mph - N/A   Clear
1:35 AM 80.6 °F 86.2 °F 75.2 °F 84% 29.92 in 5.0 mi SW 3.5 mph - N/A   Clear
1:55 AM - - - N/A% 29.91 in - South 5.8 mph - N/A   Unknown
2:15 AM 80.6 °F 86.2 °F 75.2 °F 84% 29.92 in 5.0 mi South 8.1 mph - N/A   Partly Cloudy
2:35 AM 80.6 °F 86.2 °F 75.2 °F 84% 29.91 in 5.0 mi South 5.8 mph - N/A   Clear
2:55 AM 78.8 °F - 75.2 °F 89% 29.91 in 5.0 mi SSW 4.6 mph - N/A   Clear
3:15 AM 78.8 °F - 75.2 °F 89% 29.91 in 5.0 mi SW 6.9 mph - N/A   Clear
3:35 AM 78.8 °F - 75.2 °F 89% 29.91 in 4.0 mi West 4.6 mph - N/A   Clear
3:55 AM 78.8 °F - 75.2 °F 89% 29.91 in 5.0 mi South 4.6 mph - N/A   Clear
4:15 AM 78.8 °F - 75.2 °F 89% 29.91 in 5.0 mi SW 5.8 mph - N/A   Partly Cloudy
4:35 AM 78.8 °F - 75.2 °F 89% 29.91 in 5.0 mi SSW 6.9 mph - N/A   Partly Cloudy
4:55 AM 78.8 °F - 75.2 °F 89% 29.90 in 5.0 mi SSW 4.6 mph - N/A   Partly Cloudy
5:15 AM 78.8 °F - 75.2 °F 89% 29.90 in 5.0 mi WSW 5.8 mph - N/A   Clear
5:35 AM 78.8 °F - 75.2 °F 89% 29.90 in 4.0 mi SW 6.9 mph - N/A   Clear
5:55 AM 77.0 °F - 75.2 °F 94% 29.89 in 4.0 mi WSW 6.9 mph 18.4 mph N/A   Clear
6:15 AM 77.0 °F - 75.2 °F 94% 29.89 in 4.0 mi WSW 10.4 mph 17.3 mph N/A   Clear
6:35 AM 77.0 °F - 75.2 °F 94% 29.89 in 4.0 mi WSW 6.9 mph - N/A   Clear
6:55 AM 77.0 °F - 75.2 °F 94% 29.88 in 3.0 mi SW 9.2 mph - N/A   Clear
7:15 AM 77.0 °F - 75.2 °F 94% 29.89 in 3.0 mi WSW 6.9 mph - N/A   Clear
7:35 AM 78.8 °F - 75.2 °F 89% 29.90 in 3.0 mi WSW 6.9 mph - N/A   Clear
7:55 AM 80.6 °F 86.2 °F 75.2 °F 84% 29.90 in 3.0 mi SW 9.2 mph - N/A   Clear
8:15 AM 80.6 °F 86.2 °F 75.2 °F 84% 29.90 in 3.0 mi WSW 9.2 mph - N/A   Clear
8:35 AM 82.4 °F 89.5 °F 75.2 °F 79% 29.91 in 3.0 mi WSW 11.5 mph 16.1 mph N/A   Clear
8:55 AM 82.4 °F 89.5 °F 75.2 °F 79% 29.92 in 3.0 mi WNW 5.8 mph - N/A   Mostly Cloudy
9:15 AM 82.4 °F 89.5 °F 75.2 °F 79% 29.91 in 3.0 mi WSW 11.5 mph 23.0 mph N/A   Mostly Cloudy
9:35 AM 84.2 °F 92.3 °F 75.2 °F 74% 29.93 in 4.0 mi SW 5.8 mph 16.1 mph N/A   Partly Cloudy
9:55 AM 86.0 °F 93.4 °F 73.4 °F 66% 29.92 in 4.0 mi SW 11.5 mph 24.2 mph N/A   Clear
10:15 AM 86.0 °F 93.4 °F 73.4 °F 66% 29.92 in 4.0 mi SW 13.8 mph 21.9 mph N/A   Clear
10:35 AM 89.6 °F 98.2 °F 73.4 °F 59% 29.92 in 4.0 mi WSW 11.5 mph 16.1 mph N/A   Partly Cloudy
10:55 AM 89.6 °F 98.2 °F 73.4 °F 59% 29.93 in 3.0 mi WSW 11.5 mph - N/A   Scattered Clouds
11:15 AM 89.6 °F 96.2 °F 71.6 °F 55% 29.93 in 4.0 mi WSW 6.9 mph 18.4 mph N/A   Scattered Clouds
11:35 AM 91.4 °F 98.4 °F 71.6 °F 52% 29.93 in 4.0 mi WSW 4.6 mph 17.3 mph N/A   Clear
11:55 AM 93.2 °F 100.5 °F 71.6 °F 49% 29.93 in 4.0 mi WSW 5.8 mph - N/A   Clear
12:15 PM 93.2 °F 98.8 °F 69.8 °F 46% 29.93 in 4.0 mi WSW 8.1 mph 16.1 mph N/A   Clear
12:35 PM 95.0 °F 99.5 °F 68.0 °F 41% 29.92 in 4.0 mi WSW 10.4 mph 17.3 mph N/A   Clear
12:55 PM 95.0 °F 99.5 °F 68.0 °F 41% 29.92 in 4.0 mi West 3.5 mph 19.6 mph N/A   Clear
1:15 PM 98.6 °F 104.1 °F 68.0 °F 37% 29.91 in 4.0 mi SW 11.5 mph - N/A   Clear
1:35 PM 98.6 °F 104.1 °F 68.0 °F 37% 29.90 in 3.0 mi SSW 4.6 mph - N/A   Clear
1:55 PM 98.6 °F 102.8 °F 66.2 °F 35% 29.89 in 4.0 mi WSW 4.6 mph 19.6 mph N/A   Clear
2:15 PM 98.6 °F 102.8 °F 66.2 °F 35% 29.88 in 4.0 mi SW 6.9 mph 21.9 mph N/A   Clear
2:35 PM 100.4 °F 103.6 °F 64.4 °F 31% 29.88 in 3.0 mi SSW 5.8 mph 17.3 mph N/A   Partly Cloudy
2:55 PM 100.4 °F 104.9 °F 66.2 °F 33% 29.88 in 4.0 mi SW 6.9 mph - N/A   Clear
3:15 PM 100.4 °F 104.9 °F 66.2 °F 33% 29.87 in 3.0 mi South 6.9 mph - N/A   Clear
3:35 PM 100.4 °F 104.9 °F 66.2 °F 33% 29.86 in 4.0 mi SW 8.1 mph - N/A   Clear
3:55 PM 100.4 °F 103.6 °F 64.4 °F 31% 29.85 in 3.0 mi SSW 3.5 mph - N/A   Clear
4:15 PM 100.4 °F 103.6 °F 64.4 °F 31% 29.84 in 4.0 mi South 4.6 mph 16.1 mph N/A   Clear
4:35 PM 100.4 °F 102.4 °F 62.6 °F 29% 29.83 in 4.0 mi SW 10.4 mph 18.4 mph N/A   Clear
4:55 PM 100.4 °F 102.4 °F 62.6 °F 29% 29.82 in 4.0 mi WSW 8.1 mph 20.7 mph N/A   Clear
5:15 PM 98.6 °F 104.1 °F 68.0 °F 37% 29.82 in 4.0 mi SSW 8.1 mph 19.6 mph N/A   Clear
5:35 PM 98.6 °F 104.1 °F 68.0 °F 37% 29.82 in 3.0 mi SSW 8.1 mph 17.3 mph N/A   Clear
5:55 PM 95.0 °F 101.3 °F 69.8 °F 44% 29.82 in 4.0 mi SSW 10.4 mph 18.4 mph N/A   Partly Cloudy
6:15 PM 95.0 °F 101.3 °F 69.8 °F 44% 29.81 in 4.0 mi South 11.5 mph 17.3 mph N/A   Clear
6:35 PM 95.0 °F 99.5 °F 68.0 °F 41% 29.81 in 4.0 mi SW 6.9 mph 17.3 mph N/A   Clear
6:55 PM 93.2 °F 100.5 °F 71.6 °F 49% 29.81 in 4.0 mi SSW 11.5 mph 20.7 mph N/A   Clear
7:15 PM 91.4 °F 98.4 °F 71.6 °F 52% 29.82 in 4.0 mi SSW 11.5 mph 20.7 mph N/A   Clear
7:35 PM 89.6 °F 96.2 °F 71.6 °F 55% 29.83 in 4.0 mi SSW 5.8 mph 16.1 mph N/A   Clear
7:55 PM 89.6 °F 96.2 °F 71.6 °F 55% 29.83 in 4.0 mi SSW 8.1 mph 18.4 mph N/A   Clear
8:15 PM 87.8 °F 93.8 °F 71.6 °F 58% 29.84 in 4.0 mi South 9.2 mph 17.3 mph N/A   Clear
8:35 PM 86.0 °F 93.4 °F 73.4 °F 66% 29.85 in 5.0 mi SSW 10.4 mph 19.6 mph N/A   Clear
8:55 PM 84.2 °F 92.3 °F 75.2 °F 74% 29.85 in 5.0 mi SSW 11.5 mph 19.6 mph N/A   Clear
9:15 PM 84.2 °F 92.3 °F 75.2 °F 74% 29.86 in 5.0 mi SSW 8.1 mph 17.3 mph N/A   Clear
9:35 PM 84.2 °F 92.3 °F 75.2 °F 74% 29.87 in 5.0 mi South 11.5 mph 17.3 mph N/A   Clear
9:55 PM 82.4 °F 89.5 °F 75.2 °F 79% 29.88 in 5.0 mi South 8.1 mph - N/A   Clear
10:15 PM 82.4 °F 89.5 °F 75.2 °F 79% 29.88 in 5.0 mi South 10.4 mph 18.4 mph N/A   Clear
10:35 PM 82.4 °F 89.5 °F 75.2 °F 79% 29.88 in 5.0 mi SSW 6.9 mph 16.1 mph N/A   Clear
10:55 PM 82.4 °F 89.5 °F 75.2 °F 79% 29.89 in 5.0 mi South 9.2 mph 16.1 mph N/A   Clear
11:15 PM 80.6 °F 86.2 °F 75.2 °F 84% 29.90 in 5.0 mi South 8.1 mph - N/A   Clear
11:35 PM 80.6 °F 86.2 °F 75.2 °F 84% 29.89 in 5.0 mi South 8.1 mph - N/A   Clear
11:55 PM 80.6 °F 86.2 °F 75.2 °F 84% 29.90 in 5.0 mi South 8.1 mph 16.1 mph N/A   Clear